Stations météo

Publicité
Le Talut, France (7207): Température de l'air & dewpoint: 18.03.2019 00:00:00 - 24.03.2019 00:00:00 (CET)Le Talut, France (7207): Vitesse du vent & gusts: 18.03.2019 00:00:00 - 24.03.2019 00:00:00 (CET)Le Talut, France (7207): Direction du vent: 18.03.2019 00:00:00 - 24.03.2019 00:00:00 (CET)Le Talut, France (7207): reduced air pressure: 18.03.2019 00:00:00 - 24.03.2019 00:00:00 (CET)Le Talut, France (7207): visibility: 18.03.2019 00:00:00 - 24.03.2019 00:00:00 (CET)Le Talut, France (7207): Quantités de précipitations: 18.03.2019 00:00:00 - 24.03.2019 00:00:00 (CET)
Date & Time tt [°C] td [°C] ff [km/h] ff [knt] fx [km/h] fx [knt] dd ppp [hPa] vv [km] rr [mm]
24.03.2019 00:00:00 10,5 7,7 24 13 36 20 NE 1028,4 - 0,0
23.03.2019 23:00:00 10,8 7,1 24 13 34 18 NE 1028,3 - 0,0
23.03.2019 22:00:00 11,8 6,7 20 11 29 15 NE 1028,5 - 0,0
23.03.2019 21:00:00 12,5 7,4 19 11 26 14 NE 1028,0 - 0,0
23.03.2019 20:00:00 11,2 5,1 15 8 22 12 NNE 1027,7 - 0,0
23.03.2019 19:00:00 13,8 5,2 16 8 24 13 NE 1027,3 - 0,0
23.03.2019 18:00:00 15,9 5,8 14 8 27 15 NE 1027,3 - 0,0
23.03.2019 17:00:00 16,5 6,6 18 10 34 18 NE 1027,6 - 0,0
23.03.2019 16:00:00 16,6 6,4 16 9 31 17 E 1028,0 10 0,0
23.03.2019 15:00:00 16,5 6,3 13 7 31 17 E 1028,2 - 0,0
23.03.2019 14:00:00 15,8 6,2 16 9 32 18 E 1028,8 - 0,0
23.03.2019 13:00:00 15,6 7,9 16 8 29 15 E 1029,2 - 0,0
23.03.2019 12:00:00 14,4 7,4 10 6 33 18 E 1029,3 - 0,0
23.03.2019 11:00:00 12,8 7,7 17 9 28 15 E 1029,4 - 0,0
23.03.2019 10:00:00 11,2 7,9 18 10 28 15 ENE 1029,5 - 0,0
23.03.2019 09:00:00 9,3 7,7 18 10 27 15 NE 1029,4 - 0,0
23.03.2019 08:00:00 8,1 7,2 19 11 26 14 NE 1029,3 - 0,0
23.03.2019 07:00:00 6,6 5,5 19 10 23 12 NE 1029,1 - 0,0
23.03.2019 06:00:00 7,5 6,4 16 8 27 15 ENE 1028,7 - 0,0
23.03.2019 05:00:00 6,8 5,9 17 9 25 13 NE 1028,6 - 0,0
23.03.2019 04:00:00 7,5 5,8 16 8 20 11 NNE 1028,9 - 0,0
23.03.2019 03:00:00 7,3 6,4 7 4 16 9 NNE 1029,2 - 0,2
23.03.2019 02:00:00 7,6 6,8 15 8 19 10 N 1029,2 - 0,0
23.03.2019 01:00:00 7,4 6,3 14 8 18 10 N 1029,3 - 0,0
23.03.2019 00:00:00 7,1 5,9 10 6 14 8 N 1029,6 - 0,0
22.03.2019 23:00:00 6,6 5,4 11 6 14 8 N 1029,6 - 0,2
22.03.2019 22:00:00 9,2 8,1 2 1 5 3 E 1029,3 - 0,0
22.03.2019 21:00:00 9,3 7,9 0 0 4 2 N 1028,9 - 0,0
22.03.2019 20:00:00 10,0 7,9 3 2 6 3 W 1028,8 - 0,0
22.03.2019 19:00:00 11,7 8,5 3 1 7 4 S 1028,4 - 0,0
22.03.2019 18:00:00 13,1 9,0 4 2 9 5 SSW 1028,2 - 0,0
22.03.2019 17:00:00 13,0 8,9 7 4 10 6 SE 1028,2 - 0,0
22.03.2019 16:00:00 13,2 9,1 7 4 17 9 SE 1028,4 - 0,0
22.03.2019 15:00:00 12,9 9,0 11 6 16 9 SE 1028,7 - 0,0
22.03.2019 14:00:00 13,2 9,3 8 4 19 10 ESE 1029,0 - 0,0
22.03.2019 13:00:00 12,4 8,5 10 5 23 12 ESE 1029,3 - 0,0
22.03.2019 12:00:00 12,4 8,5 10 6 22 12 ESE 1029,5 - 0,0
22.03.2019 11:00:00 12,3 8,4 11 6 21 11 ESE 1029,6 - 0,0
22.03.2019 10:00:00 12,0 8,7 7 4 20 11 ESE 1029,3 8 0,0
22.03.2019 09:00:00 10,1 8,4 16 9 25 13 E 1028,9 - 0,0
22.03.2019 08:00:00 8,5 7,4 20 11 25 14 E 1028,7 - 0,0
22.03.2019 07:00:00 8,1 7,0 17 9 25 13 E 1028,4 20 0,0
22.03.2019 06:00:00 7,9 6,8 19 11 27 15 E 1028,2 - 0,0
22.03.2019 05:00:00 8,2 7,0 19 10 27 15 ENE 1028,4 - 0,0
22.03.2019 04:00:00 8,5 7,3 19 10 29 16 ENE 1028,7 - 0,0
22.03.2019 03:00:00 8,6 7,1 21 11 32 18 ENE 1029,2 - 0,0
22.03.2019 02:00:00 9,0 7,4 22 12 34 19 NE 1029,7 - 0,0
22.03.2019 01:00:00 9,2 7,3 23 12 34 18 NE 1030,1 - 0,0
22.03.2019 00:00:00 9,6 7,4 25 13 35 19 NE 1030,4 - 0,0
21.03.2019 23:00:00 9,8 7,2 24 13 34 19 NNE 1030,8 - 0,0
21.03.2019 22:00:00 10,3 7,2 23 12 34 19 NNE 1031,0 - 0,0
21.03.2019 21:00:00 10,5 7,2 21 11 29 15 NNE 1030,8 - 0,0
21.03.2019 20:00:00 10,5 6,8 14 8 21 11 N 1030,8 - 0,0
21.03.2019 19:00:00 12,4 7,1 11 6 22 12 NNE 1030,8 20 0,0
21.03.2019 18:00:00 13,8 7,3 16 8 24 13 NNE 1030,7 - 0,0
21.03.2019 17:00:00 14,1 7,6 13 7 24 13 NNE 1031,1 - 0,0
21.03.2019 16:00:00 14,4 7,2 13 7 28 15 NE 1031,7 20 0,0
21.03.2019 15:00:00 14,5 6,8 17 9 31 17 NNE 1032,5 - 0,0
21.03.2019 14:00:00 15,6 8,1 17 9 37 20 NNE 1033,3 - 0,0
21.03.2019 13:00:00 14,6 7,9 20 11 32 18 NE 1033,9 - 0,0
21.03.2019 12:00:00 14,2 8,6 6 3 22 12 ESE 1034,4 - 0,0
21.03.2019 11:00:00 12,5 8,0 15 8 24 13 E 1034,7 - 0,0
21.03.2019 10:00:00 11,9 8,6 14 8 26 14 ENE 1034,5 - 0,0
21.03.2019 09:00:00 11,0 8,4 16 9 25 13 NE 1034,3 - 0,0
21.03.2019 08:00:00 10,3 8,1 13 7 22 12 NE 1034,1 - 0,0
21.03.2019 07:00:00 10,2 8,1 16 9 23 13 NE 1033,8 - 0,0
21.03.2019 06:00:00 10,1 8,2 13 7 24 13 NE 1033,7 - 0,0
21.03.2019 05:00:00 9,9 8,3 19 10 24 13 NE 1033,5 - 0,0
21.03.2019 04:00:00 10,1 8,4 18 10 25 13 NNE 1033,8 - 0,0
21.03.2019 03:00:00 10,6 9,0 16 9 26 14 NNE 1034,2 - 0,0
21.03.2019 02:00:00 10,6 9,4 14 7 24 13 NNE 1034,4 - 0,0
21.03.2019 01:00:00 10,7 9,3 14 8 23 12 N 1034,7 - 0,0
21.03.2019 00:00:00 10,7 9,1 16 8 23 13 N 1034,9 - 0,0
20.03.2019 23:00:00 10,7 9,0 17 9 29 16 NNW 1035,0 - 0,0
20.03.2019 22:00:00 10,7 8,6 21 11 32 17 NNW 1035,0 - 0,0
20.03.2019 21:00:00 10,7 8,3 14 8 23 12 NW 1035,1 - 0,0
20.03.2019 20:00:00 10,6 7,7 14 8 25 13 NW 1034,9 - 0,0
20.03.2019 19:00:00 11,0 7,3 15 8 22 12 NW 1034,5 20 0,0
20.03.2019 18:00:00 12,3 7,8 11 6 22 12 W 1034,4 - 0,0
20.03.2019 17:00:00 13,0 7,7 12 7 20 11 W 1034,6 - 0,0
20.03.2019 16:00:00 13,5 7,5 12 7 19 10 W 1035,0 - 0,0
20.03.2019 15:00:00 13,3 8,4 11 6 17 9 W 1035,1 - 0,0
20.03.2019 14:00:00 11,7 7,4 4 2 10 5 SW 1035,5 - 0,0
20.03.2019 13:00:00 11,6 7,9 6 3 13 7 W 1035,7 18 0,0
20.03.2019 12:00:00 11,5 8,4 6 3 16 9 WNW 1035,9 - 0,0
20.03.2019 11:00:00 11,7 9,6 8 5 13 7 W 1035,7 - 0,0
20.03.2019 10:00:00 10,7 9,8 7 4 11 6 NW 1035,7 18 0,0
20.03.2019 09:00:00 10,0 9,2 3 1 6 3 N 1035,2 - 0,0
20.03.2019 08:00:00 9,0 8,1 4 2 5 3 NW 1034,5 - 0,0
20.03.2019 07:00:00 8,8 7,7 3 1 10 5 ESE 1033,8 18 0,0
20.03.2019 06:00:00 8,9 7,8 9 5 10 6 ENE 1033,5 - 0,0
20.03.2019 05:00:00 9,4 8,2 6 4 9 5 N 1033,3 - 0,0
20.03.2019 04:00:00 9,6 8,2 5 3 10 5 E 1033,3 - 0,0
20.03.2019 03:00:00 10,0 8,4 7 4 10 5 NNW 1033,5 - 0,0
20.03.2019 02:00:00 10,2 8,5 8 5 14 8 NW 1033,6 - 0,0
20.03.2019 01:00:00 10,3 8,4 6 3 13 7 W 1033,7 - 0,0
20.03.2019 00:00:00 10,1 8,0 5 3 11 6 W 1034,1 - 0,0
19.03.2019 23:00:00 10,1 7,9 6 3 15 8 WNW 1033,9 - 0,0
19.03.2019 22:00:00 9,8 7,4 4 2 7 4 NW 1033,1 - 0,0
19.03.2019 21:00:00 10,0 7,1 3 2 11 6 WNW 1032,5 - 0,0
19.03.2019 20:00:00 10,1 6,8 6 3 16 9 W 1032,4 - 0,0
19.03.2019 19:00:00 10,4 7,1 11 6 18 10 W 1031,9 - 0,0
19.03.2019 18:00:00 10,7 6,6 11 6 16 9 W 1031,3 - 0,0
19.03.2019 17:00:00 10,8 6,9 9 5 15 8 W 1031,2 - 0,0
19.03.2019 16:00:00 10,6 6,5 7 4 13 7 WSW 1031,1 20 0,0
19.03.2019 15:00:00 11,1 6,6 8 5 13 7 WSW 1030,8 - 0,0
19.03.2019 14:00:00 10,7 7,2 8 4 15 8 W 1031,2 - 0,0
19.03.2019 13:00:00 10,5 6,6 7 4 13 7 SW 1031,2 - 0,0
19.03.2019 12:00:00 10,4 6,5 5 3 13 7 SSW 1031,1 - 0,0
19.03.2019 11:00:00 10,7 6,4 8 5 16 8 SE 1030,6 - 0,0
19.03.2019 10:00:00 10,2 7,6 5 3 10 5 NE 1030,2 20 0,0
19.03.2019 09:00:00 9,8 7,9 5 3 9 5 NNE 1029,7 - 0,0
19.03.2019 08:00:00 8,2 6,8 5 3 9 5 N 1029,1 - 0,0
19.03.2019 07:00:00 7,9 6,5 7 4 13 7 N 1028,6 20 0,0
19.03.2019 06:00:00 7,9 6,5 11 6 15 8 N 1028,4 - 0,0
19.03.2019 05:00:00 8,0 6,5 10 6 15 8 N 1028,2 - 0,0
19.03.2019 04:00:00 7,9 6,4 10 6 15 8 N 1028,0 - 0,0
19.03.2019 03:00:00 7,9 6,2 10 6 16 8 N 1028,1 - 0,0
19.03.2019 02:00:00 7,4 5,2 10 6 17 9 N 1028,1 - 0,0
19.03.2019 01:00:00 8,6 6,0 11 6 21 11 N 1028,0 - 0,0
19.03.2019 00:00:00 9,0 6,3 14 8 27 15 NNW 1028,1 - 0,0
18.03.2019 23:00:00 9,1 6,4 16 8 31 17 NW 1028,0 - 0,0
18.03.2019 22:00:00 9,0 6,6 17 9 30 16 NW 1027,9 - 0,0
18.03.2019 21:00:00 8,8 6,6 18 10 36 19 NW 1027,5 - 0,2
18.03.2019 20:00:00 8,7 6,0 25 14 41 22 NW 1027,4 - 0,2
18.03.2019 19:00:00 8,8 5,5 26 14 42 23 NW 1027,1 - 0,0
18.03.2019 18:00:00 9,4 5,4 23 12 45 24 WNW 1026,7 - 0,0
18.03.2019 17:00:00 9,5 4,9 24 13 52 28 NW 1026,7 - 0,0
18.03.2019 16:00:00 9,7 5,1 24 13 48 26 W 1026,8 15 0,0
18.03.2019 15:00:00 9,8 5,4 27 14 47 26 WNW 1027,0 - 0,0
18.03.2019 14:00:00 10,5 4,8 24 13 42 23 W 1027,3 - 0,0
18.03.2019 13:00:00 10,9 5,4 15 8 32 17 WNW 1027,5 - 0,0
18.03.2019 12:00:00 11,2 5,3 17 9 34 18 WNW 1027,5 - 0,0
18.03.2019 11:00:00 11,4 5,3 16 9 34 18 WNW 1027,4 - 0,0
18.03.2019 10:00:00 10,8 5,5 16 9 36 20 NW 1027,0 - 0,0
18.03.2019 09:00:00 10,2 5,2 16 9 31 17 NW 1026,4 - 0,0
18.03.2019 08:00:00 9,5 5,1 19 11 37 20 NW 1026,0 - 0,0
18.03.2019 07:00:00 8,9 4,7 19 10 35 19 NW 1025,6 12 0,0
18.03.2019 06:00:00 8,9 4,5 22 12 38 21 NW 1025,1 - 0,0
18.03.2019 05:00:00 9,0 4,4 23 13 47 25 NW 1024,8 - 0,0
18.03.2019 04:00:00 9,4 4,4 29 16 48 26 NW 1024,6 - 0,0
18.03.2019 03:00:00 9,5 4,5 28 15 46 25 NW 1024,5 - 0,0
18.03.2019 02:00:00 9,2 4,0 26 14 50 27 NW 1024,3 - 0,0
18.03.2019 01:00:00 9,1 3,9 26 14 46 25 NW 1024,0 - 0,0
18.03.2019 00:00:00 9,2 3,4 33 18 50 27 NW 1023,9 - 0,0

tt = Température de l'air
td = dewpoint
ff = Vitesse du vent
fx = gusts
dd = Direction du vent
ppp = reduced air pressure
vv = visibility
rr = Quantités de précipitations

stations d'obs. à proximité